Three Rivers, MI

5:58 AM EDT on September 25, 2017 (GMT -0400)
Three Rivers Municipal-Haines

Weather History for KHAI - January, 2009

Change the Weather History Date:

Thursday, January 1, 2009

  Actual Average Record
Temperature  
Mean Temperature 24 °F -  
Max Temperature 30 °F 31 °F 95 °F (2007)
Min Temperature 19 °F 18 °F -11 °F (1968)
Degree Days  
Heating Degree Days 40    
Moisture  
Dew Point 16 °F    
Average Humidity 74    
Maximum Humidity 86    
Minimum Humidity 60    
Precipitation  
Precipitation 0.00 in - - ()
Sea Level Pressure  
Sea Level Pressure 30.14 in    
Wind  
Wind Speed 8 mph (South)    
Max Wind Speed 17 mph    
Max Gust Speed 22 mph    
Visibility 10 miles    
Events      
Averages and records for this station are not official NWS values.
T = Trace of Precipitation, MM = Missing Value Source: NWS Daily Summary

Daily Weather History Graph

Daily Weather History Graph

Search for Another Location

Airport or City:

Trip Planner

Search our weather history database for the weather conditions in past years. The results will help you decide how hot, cold, wet, or windy it might be!

Date:

Astronomy

Jan. 01, 2009 Rise Set
Actual Time 8:10 AM EST 5:22 PM EST
Civil Twilight 7:38 AM EST 5:53 PM EST
Nautical Twilight 7:03 AM EST 6:28 PM EST
Astronomical Twilight 6:29 AM EST 7:02 PM EST
Moon 10:54 AM EST (1/1) 10:37 PM EST (1/1)
Length of Visible Light 10h 14m
Length of Day
9h 11m
Waxing Crescent, 23% of the Moon is Illuminated
Jan 1
Waxing Crescent
Jan 4
First Quarter
Jan 10
Full
Jan 17
Last Quarter
Jan 26
New

Hourly Weather History & Observations

Time (EST) Temp. Windchill Dew Point Humidity Pressure Visibility Wind Dir Wind Speed Gust Speed Precip Events Conditions
12:17 AM 19.4 °F 14.3 °F 14.0 °F 80% 30.34 in 10.0 mi SW 3.5 mph - N/A   Overcast
12:37 AM 19.4 °F 12.8 °F 14.0 °F 80% 30.33 in 10.0 mi SW 4.6 mph - N/A   Overcast
12:55 AM 19.4 °F 12.8 °F 15.8 °F 86% 30.32 in 10.0 mi SW 4.6 mph - N/A   Scattered Clouds
1:17 AM 19.4 °F 11.5 °F 15.8 °F 86% 30.32 in 10.0 mi SSW 5.8 mph - N/A   Clear
1:37 AM 19.4 °F 12.8 °F 15.8 °F 86% 30.30 in 10.0 mi South 4.6 mph - N/A   Clear
1:55 AM 19.4 °F 12.8 °F 15.8 °F 86% 30.30 in 10.0 mi South 4.6 mph - N/A   Clear
2:17 AM 19.4 °F 12.8 °F 15.8 °F 86% 30.28 in 10.0 mi SSE 4.6 mph - N/A   Clear
2:37 AM 19.4 °F 12.8 °F 15.8 °F 86% 30.31 in 10.0 mi SSW 4.6 mph - N/A   Clear
2:55 AM 19.4 °F 11.5 °F 15.8 °F 86% 30.31 in 10.0 mi SSW 5.8 mph - N/A   Clear
3:17 AM 19.4 °F 11.5 °F 15.8 °F 86% 30.30 in 10.0 mi South 5.8 mph - N/A   Clear
3:37 AM 19.4 °F 10.4 °F 15.8 °F 86% 30.31 in 10.0 mi South 6.9 mph - N/A   Clear
3:55 AM 19.4 °F 8.6 °F 15.8 °F 86% 30.30 in 10.0 mi South 9.2 mph - N/A   Clear
4:17 AM 19.4 °F 9.5 °F 14.0 °F 80% 30.29 in 10.0 mi South 8.1 mph - N/A   Clear
4:37 AM 19.4 °F 8.6 °F 14.0 °F 80% 30.28 in 10.0 mi South 9.2 mph - N/A   Clear
4:55 AM 19.4 °F 10.4 °F 14.0 °F 80% 30.27 in 10.0 mi South 6.9 mph - N/A   Clear
5:17 AM 19.4 °F 8.6 °F 14.0 °F 80% 30.26 in 10.0 mi South 9.2 mph - N/A   Clear
5:37 AM 19.4 °F 8.6 °F 14.0 °F 80% 30.25 in 10.0 mi South 9.2 mph - N/A   Clear
5:55 AM 19.4 °F 7.9 °F 14.0 °F 80% 30.24 in 10.0 mi South 10.4 mph - N/A   Clear
6:16 AM 19.4 °F 9.5 °F 14.0 °F 80% 30.23 in 10.0 mi South 8.1 mph - N/A   Clear
6:37 AM 19.4 °F 7.9 °F 14.0 °F 80% 30.23 in 10.0 mi SSE 10.4 mph - N/A   Clear
6:55 AM 19.4 °F 7.9 °F 14.0 °F 80% 30.23 in 10.0 mi South 10.4 mph - N/A   Clear
7:17 AM 19.4 °F 7.9 °F 14.0 °F 80% 30.22 in 10.0 mi South 10.4 mph 17.3 mph N/A   Clear
7:37 AM 19.4 °F 8.6 °F 14.0 °F 80% 30.23 in 10.0 mi South 9.2 mph - N/A   Mostly Cloudy
7:55 AM 19.4 °F 7.2 °F 14.0 °F 80% 30.22 in 10.0 mi South 11.5 mph - N/A   Overcast
8:17 AM 19.4 °F 7.9 °F 14.0 °F 80% 30.22 in 10.0 mi South 10.4 mph - N/A   Overcast
8:37 AM 19.4 °F 6.0 °F 14.0 °F 80% 30.22 in 10.0 mi South 13.8 mph 18.4 mph N/A   Overcast
8:55 AM 19.4 °F 7.9 °F 14.0 °F 80% 30.21 in 10.0 mi South 10.4 mph - N/A   Overcast
9:17 AM 21.2 °F 9.5 °F 14.0 °F 74% 30.20 in 10.0 mi South 11.5 mph - N/A   Overcast
9:37 AM 21.2 °F 9.5 °F 14.0 °F 74% 30.20 in 10.0 mi South 11.5 mph 17.3 mph N/A   Overcast
9:55 AM 21.2 °F 9.5 °F 14.0 °F 74% 30.19 in 10.0 mi South 11.5 mph 18.4 mph N/A   Overcast
10:17 AM 21.2 °F 10.1 °F 14.0 °F 74% 30.18 in 10.0 mi SSE 10.4 mph 20.7 mph N/A   Overcast
10:37 AM 23.0 °F 11.7 °F 14.0 °F 68% 30.17 in 10.0 mi South 11.5 mph - N/A   Mostly Cloudy
10:55 AM 23.0 °F 10.1 °F 14.0 °F 68% 30.17 in 10.0 mi South 15.0 mph 18.4 mph N/A   Scattered Clouds
11:17 AM 24.8 °F 12.9 °F 15.8 °F 69% 30.16 in 10.0 mi South 13.8 mph 18.4 mph N/A   Scattered Clouds
11:37 AM 24.8 °F 13.4 °F 14.0 °F 64% 30.16 in 10.0 mi South 12.7 mph - N/A   Mostly Cloudy
11:55 AM 24.8 °F 13.4 °F 15.8 °F 69% 30.14 in 10.0 mi South 12.7 mph - N/A   Overcast
12:17 PM 24.8 °F 12.4 °F 15.8 °F 69% 30.12 in 10.0 mi South 15.0 mph 20.7 mph N/A   Overcast
12:37 PM 26.6 °F 15.2 °F 17.6 °F 69% 30.10 in 10.0 mi South 13.8 mph 18.4 mph N/A   Overcast
12:55 PM 26.6 °F 15.2 °F 17.6 °F 69% 30.09 in 10.0 mi South 13.8 mph 19.6 mph N/A   Overcast
1:17 PM 26.6 °F 16.2 °F 17.6 °F 69% 30.07 in 10.0 mi South 11.5 mph 16.1 mph N/A   Overcast
1:37 PM 26.6 °F 15.7 °F 17.6 °F 69% 30.06 in 10.0 mi SSE 12.7 mph 18.4 mph N/A   Mostly Cloudy
1:55 PM 26.6 °F 15.2 °F 17.6 °F 69% 30.03 in 10.0 mi South 13.8 mph - N/A   Mostly Cloudy
2:17 PM 28.4 °F 16.6 °F 17.6 °F 64% 30.01 in 10.0 mi South 16.1 mph 20.7 mph N/A   Overcast
2:37 PM 28.4 °F 17.0 °F 17.6 °F 64% 29.99 in 10.0 mi South 15.0 mph - N/A   Overcast
3:17 PM 28.4 °F 17.5 °F 17.6 °F 64% 29.96 in 10.0 mi South 13.8 mph 19.6 mph N/A   Overcast
3:37 PM 28.4 °F 18.0 °F 17.6 °F 64% 29.94 in 10.0 mi South 12.7 mph - N/A   Overcast
3:55 PM 28.4 °F 18.0 °F 17.6 °F 64% 29.93 in 10.0 mi South 12.7 mph 19.6 mph N/A   Overcast
4:17 PM 28.4 °F 17.5 °F 17.6 °F 64% 29.91 in 10.0 mi South 13.8 mph 21.9 mph N/A   Overcast
4:37 PM 28.4 °F 17.0 °F 17.6 °F 64% 29.90 in 10.0 mi South 15.0 mph 21.9 mph N/A   Overcast
4:55 PM 30.2 °F 18.5 °F 17.6 °F 60% 29.87 in 10.0 mi South 17.3 mph 21.9 mph N/A   Overcast
5:17 PM 30.2 °F 20.8 °F 17.6 °F 60% 29.87 in 10.0 mi South 11.5 mph - N/A   Overcast
5:37 PM 30.2 °F 20.2 °F 17.6 °F 60% 29.86 in 10.0 mi SSE 12.7 mph 16.1 mph N/A   Overcast
5:55 PM 30.2 °F 21.3 °F 17.6 °F 60% 29.86 in 10.0 mi South 10.4 mph - N/A   Overcast
6:17 PM 30.2 °F 21.9 °F 17.6 °F 60% 29.85 in 10.0 mi South 9.2 mph - N/A   Overcast
6:37 PM 30.2 °F 21.9 °F 17.6 °F 60% 29.85 in 10.0 mi South 9.2 mph - N/A   Overcast
6:55 PM 30.2 °F 21.3 °F 17.6 °F 60% 29.82 in 10.0 mi South 10.4 mph - N/A   Overcast
7:17 PM 30.2 °F 20.8 °F 19.4 °F 64% 29.84 in 10.0 mi South 11.5 mph - N/A   Overcast
7:37 PM 30.2 °F 21.9 °F 19.4 °F 64% 29.83 in 10.0 mi SSW 9.2 mph - N/A   Mostly Cloudy
7:55 PM 30.2 °F 22.6 °F 19.4 °F 64% 29.83 in 10.0 mi South 8.1 mph - N/A   Scattered Clouds
8:17 PM 30.2 °F 21.9 °F 19.4 °F 64% 29.82 in 10.0 mi South 9.2 mph - N/A   Scattered Clouds
8:37 PM 30.2 °F 20.8 °F 19.4 °F 64% 29.80 in 10.0 mi South 11.5 mph - N/A   Clear
8:55 PM 30.2 °F 20.8 °F 19.4 °F 64% 29.79 in 10.0 mi SSW 11.5 mph - N/A   Scattered Clouds
9:17 PM 30.2 °F 21.3 °F 19.4 °F 64% 29.79 in 10.0 mi SSW 10.4 mph - N/A   Scattered Clouds
9:37 PM 30.2 °F 21.9 °F 19.4 °F 64% 29.77 in 10.0 mi SSW 9.2 mph - N/A   Clear
9:55 PM 30.2 °F 20.2 °F 19.4 °F 64% 29.76 in 10.0 mi SSW 12.7 mph 17.3 mph N/A   Clear
10:17 PM 30.2 °F 21.3 °F 19.4 °F 64% 29.76 in 10.0 mi SW 10.4 mph - N/A   Clear
10:37 PM 30.2 °F 22.6 °F 19.4 °F 64% 29.77 in 10.0 mi SW 8.1 mph - N/A   Clear
10:55 PM 30.2 °F 20.8 °F 19.4 °F 64% 29.76 in 10.0 mi SW 11.5 mph 17.3 mph N/A   Clear
11:18 PM 30.2 °F 21.3 °F 19.4 °F 64% 29.75 in 10.0 mi SW 10.4 mph 16.1 mph N/A   Clear
11:37 PM 30.2 °F 22.6 °F 19.4 °F 64% 29.76 in 10.0 mi WSW 8.1 mph - N/A   Clear
11:55 PM 30.2 °F 21.9 °F 21.2 °F 69% 29.75 in 10.0 mi WSW 9.2 mph - N/A   Clear